Zurück zum Katalog

COSMOS 1275 DEB

AktivPO
NORAD 12952·DEBRIS·🇷🇺 Russia

Gestartet Jun 4, 1981 von Plesetsk Cosmodrome

Loading…

Nächste Überflüge (nächste 24 Stunden)

TLE

AktuellSource: Space-Track

Epoche: Sep 13, 2026, 12:10 UTC

1 12952U 81053EG  26256.50742050  .00000619  00000-0  41525-3 0  9996
2 12952  82.9563 265.2862 0007790 234.7259 277.4569 13.99329610275175

Verfolge COSMOS 1275 DEB in Echtzeit mit AllMySat

Download on the App Store